www.pogodaiklimat.ru

Погода и климат >> Архив погоды >> Италия >> Конкордия-Саджиттария


ПОГОДА в Конкордия-Саджиттарии

  • Прогноз погоды в Конкордия-Саджиттарии
  • Монитор погоды в Конкордия-Саджиттарии

АРХИВ ПОГОДЫ в Конкордия-Саджиттарии

Время (UTC), дата Ветер
(напр.,м/с)
 
Видим.   Явления Облачность Т
(С)
Тd
(С)
f
(%)
Тe
(С)
Тes
(С)
Комфортность P
(гПа)
Po
(гПа)
Тmin
(С)
Tmax
(С)
R
(мм)
R24
(мм)
S
(см)
10 15.01 СЗ 1 н/о н/о +6.9 -1.6 55 +6 +6 1023.5 1018.4
11 15.01 Ю 1 н/о н/о +9.9 +0.9 53 +10 +10 1023.4 1018.4
12 15.01 ЮВ 2 н/о н/о +11.9 +0.8 46 +11 +11 1023.2 1018.2
13 15.01 ЮВ 4 н/о н/о +12.0 -2.7 36 +11 +11 1023.0 1018.0
14 15.01 ЮВ 3 н/о н/о +11.5 -0.4 44 +10 +10 1023.1 1018.1
15 15.01 ЮВ 4 н/о н/о +10.4 +0.6 51 +8 +8 1023.2 1018.2
16 15.01 В 1 н/о н/о +7.1 +0.7 64 +6 +6 1023.5 1018.4 +12.5
17 15.01 В 1 н/о н/о +4.4 +0.7 77 +4 +4 1024.1 1018.9
18 15.01 С 1 н/о н/о +2.6 +0.1 84 +2 +2 1024.3 1019.1
19 15.01 С 2 н/о н/о +2.2 +0.7 90 -1 -1 1024.6 1019.4
20 15.01 С 2 н/о н/о +2.2 +0.7 90 -1 -1 1024.7 1019.5
21 15.01 С 2 н/о н/о +1.7 +0.1 89 -2 -2 1025.1 1019.9
00 16.01 С 3 н/о н/о +0.3 -2.3 83 -4 -4 1024.7 1019.5
01 16.01 С 2 н/о н/о +0.1 -2.2 84 -4 -4 1024.5 1019.3
02 16.01 С 2 н/о н/о +0.5 -1.9 84 -3 -3 1024.6 1019.4
03 16.01 СЗ 2 н/о н/о +0.8 -2.0 82 -3 -3 1024.2 1019.0
04 16.01 СЗ 2 н/о н/о +1.2 -1.9 80 -2 -2 1023.9 1018.7 -0.1
05 16.01 СЗ 2 н/о н/о +1.1 -2.7 76 -2 -2 1023.9 1018.7
06 16.01 С 2 н/о н/о +0.6 -3.2 76 -3 -3 1023.9 1018.7 403
07 16.01 СЗ 1 н/о н/о +0.3 -3.1 78 -2 -2 1024.2 1019.0
08 16.01 СЗ 2 н/о н/о +1.3 -2.3 77 -1 -1 1024.7 1019.5
09 16.01 СЗ 1 н/о н/о +3.3 -1.1 73 +2 +2 1025.1 1019.9
10 16.01 З 1 н/о н/о +5.6 +0.3 69 +5 +5 1024.9 1019.8
11 16.01 Ю 1 н/о н/о +8.8 +1.6 61 +8 +8 1024.5 1019.4
12 16.01 Ю 2 н/о н/о +9.9 +2.6 60 +9 +9 1023.9 1018.9
13 16.01 ЮВ 1 н/о н/о +10.8 +2.5 56 +11 +11 1023.4 1018.4
14 16.01 ЮВ 1 н/о н/о +11.1 +2.8 57 +11 +11 1023.2 1018.2
15 16.01 ЮВ 2 н/о н/о +10.2 +1.5 55 +10 +10 1023.3 1018.3
16 16.01 Ю 2 н/о н/о +6.1 +0.1 65 +4 +4 1023.6 1018.5 +11.7
17 16.01 Ю 1 н/о н/о +3.1 -1.1 74 +2 +2 1023.8 1018.6
18 16.01 З 1 н/о н/о +3.0 +0.4 83 +3 +3 1024.0 1018.8
19 16.01 С 1 н/о н/о +3.9 +2.4 90 +2 +2 1024.0 1018.8
20 16.01 СЗ 1 н/о н/о +4.0 +2.3 89 +4 +4 1024.0 1018.8
21 16.01 СВ 1 н/о н/о +3.6 +1.6 87 +2 +2 1024.1 1018.9
00 17.01 С 2 н/о н/о +3.3 +1.8 90 +1 +1 1023.0 1017.8
01 17.01 штиль 0 н/о н/о +3.3 +1.8 90 +2 +2 1022.9 1017.7
02 17.01 штиль 0 н/о н/о +3.0 +1.5 90 +2 +2 1022.5 1017.3
03 17.01 штиль 0 н/о н/о +3.3 +1.8 90 +2 +2 1021.9 1016.7
04 17.01 штиль 0 н/о н/о +3.5 +2.0 90 +2 +2 1021.2 1016.1 +2.5
05 17.01 СЗ 1 н/о н/о +3.9 +2.4 90 +2 +2 1020.8 1015.7
06 17.01 С 1 н/о н/о +3.9 +2.4 90 +2 +2 1020.8 1015.7 101
07 17.01 штиль 0 н/о н/о +3.6 +2.1 90 +2 +2 1020.7 1015.6
08 17.01 С 1 н/о н/о +4.1 +2.6 90 +4 +4 1020.7 1015.6
09 17.01 штиль 0 н/о н/о +5.6 +4.1 90 +5 +5 1020.9 1015.8
10 17.01 СВ 1 н/о н/о +7.8 +6.2 90 +8 +8 1020.9 1015.8
11 17.01 СВ 1 н/о н/о +9.0 +5.1 77 +9 +9 1020.0 1015.0
12 17.01 штиль 0 н/о н/о +8.8 +4.9 76 +8 +8 1019.1 1014.1
13 17.01 С 1 н/о н/о +8.4 +5.6 83 +9 +9 1018.2 1013.2
14 17.01 СЗ 1 н/о н/о +8.4 +5.8 84 +9 +9 1018.0 1013.0
15 17.01 штиль 0 н/о н/о +8.3 +5.9 85 +7 +7 1017.4 1012.4
16 17.01 З 1 н/о н/о +7.5 +5.6 88 +7 +7 1017.2 1012.1 +9.1
17 17.01 З 1 н/о н/о +7.2 +5.6 90 +6 +6 1017.0 1011.9
18 17.01 С 2 н/о н/о +6.4 +4.9 90 +4 +4 1016.7 1011.6
19 17.01 СЗ 1 н/о н/о +6.2 +4.7 90 +5 +5 1016.5 1011.4
20 17.01 СЗ 2 н/о н/о +6.1 +4.6 90 +4 +4 1016.1 1011.0
21 17.01 С 2 н/о н/о +6.0 +4.5 90 +4 +4 1015.8 1010.7
00 18.01 СЗ 2 н/о н/о +6.3 +4.8 90 +4 +4 1014.4 1009.3
01 18.01 СЗ 1 н/о н/о +6.2 +4.7 90 +5 +5 1014.0 1008.9
02 18.01 С 1 н/о н/о +6.0 +4.6 91 +5 +5 1013.8 1008.7
03 18.01 СЗ 1 н/о н/о +6.1 +4.7 91 +5 +5 1013.3 1008.2
04 18.01 СЗ 2 н/о н/о +6.0 +4.6 91 +3 +3 1013.2 1008.1 +5.9
05 18.01 СЗ 1 н/о н/о +5.9 +4.5 91 +6 +6 1013.1 1008.0
06 18.01 СЗ 1 н/о н/о +6.0 +4.6 91 +5 +5 1013.8 1008.7 202
07 18.01 С 1 н/о н/о +6.1 +4.7 91 +5 +5 1014.7 1009.6
08 18.01 С 4 н/о н/о +6.0 +4.5 90 +2 +2 1015.8 1010.7
09 18.01 СВ 12 н/о н/о +6.1 +4.6 90 -1 -1 1016.8 1011.7
10 18.01 СВ 8 н/о н/о +6.1 +4.6 90 +1 +1 1018.4 1013.3
11 18.01 СВ 8 н/о н/о +6.2 +4.7 90 +1 +1 1018.8 1013.7
12 18.01 СВ 8 н/о н/о +7.0 +5.5 90 +2 +2 1018.9 1013.8
13 18.01 СВ 6 н/о н/о +6.6 +4.7 88 +2 +2 1019.0 1013.9
14 18.01 СВ 5 н/о н/о +6.0 +4.5 90 +1 +1 1019.4 1014.3
15 18.01 СВ 4 н/о н/о +6.5 +4.0 84 +3 +3 1020.0 1014.9
16 18.01 С 4 н/о н/о +6.0 +3.3 83 +2 +2 1020.7 1015.6 +7.2
17 18.01 С 4 н/о н/о +5.6 +3.1 84 +2 +2 1021.1 1016.0
18 18.01 С 4 н/о н/о +5.6 +1.8 77 +2 +2 1021.6 1016.5
19 18.01 СВ 3 н/о н/о +4.9 +1.9 81 +1 +1 1022.3 1017.2
20 18.01 СВ 3 н/о н/о +4.3 +0.9 79 +1 +1 1022.4 1017.3
21 18.01 СВ 4 н/о н/о +3.7 +0.9 82 -1 -1 1022.8 1017.6
00 19.01 С 4 н/о н/о +3.2 0.0 80 -1 -1 1023.1 1017.9
01 19.01 С 4 н/о н/о +3.1 -0.1 79 -2 -2 1023.0 1017.8
02 19.01 С 3 н/о н/о +3.1 -0.2 79 -1 -1 1023.1 1017.9
03 19.01 С 4 н/о н/о +2.9 -0.4 79 -2 -2 1022.7 1017.5
04 19.01 С 3 н/о н/о +2.0 -1.0 80 -2 -2 1022.6 1017.4 +1.9
05 19.01 С 4 н/о н/о +2.4 -0.6 81 -2 -2 1022.3 1017.1
06 19.01 С 4 н/о н/о +2.4 -0.4 82 -2 -2 1022.3 1017.1 207
07 19.01 С 4 н/о н/о +2.3 -0.7 81 -3 -3 1022.2 1017.0
08 19.01 С 4 н/о н/о +3.0 -0.3 79 -1 -1 1022.4 1017.2
09 19.01 С 5 н/о н/о +3.8 +0.1 77 -1 -1 1022.7 1017.5
10 19.01 С 4 н/о н/о +4.6 +0.3 74 +1 +1 1022.9 1017.8
11 19.01 С 8 н/о н/о +5.0 -0.1 70 -1 -1 1022.5 1017.4
12 19.01 СВ 4 н/о н/о +5.1 -0.2 69 +2 +2 1021.9 1016.8
13 19.01 СВ 4 н/о н/о +5.3 +0.6 72 +2 +2 1021.3 1016.2
14 19.01 СВ 3 н/о н/о +5.4 +0.9 73 +2 +2 1020.9 1015.8
15 19.01 СВ 3 н/о н/о +5.0 +0.3 72 +2 +2 1020.6 1015.5
16 19.01 С 2 н/о н/о +3.8 -0.7 72 +1 +1 1020.6 1015.5 +5.5
17 19.01 СВ 1 н/о н/о +2.4 -1.1 78 +1 +1 1020.8 1015.6
18 19.01 СЗ 2 н/о н/о +1.9 -1.1 80 -1 -1 1021.0 1015.8
19 19.01 С 2 н/о н/о +1.6 -1.2 82 -2 -2 1020.9 1015.7
20 19.01 СЗ 2 н/о н/о +1.3 -1.3 83 -2 -2 1020.9 1015.7
21 19.01 С 2 н/о н/о +1.7 -1.1 82 -2 -2 1021.0 1015.8
00 20.01 С 2 н/о н/о +0.9 -1.7 83 -3 -3 1020.3 1015.1
01 20.01 С 1 н/о н/о +0.5 -2.3 81 -1 -1 1020.2 1015.0
02 20.01 СЗ 1 н/о н/о -0.3 -2.7 84 -2 -2 1020.3 1015.1
03 20.01 СЗ 1 н/о н/о -0.6 -2.4 88 -3 -3 1020.0 1014.8
04 20.01 С 2 н/о н/о -0.4 -2.3 87 -3 -3 1019.8 1014.6 -1.0
05 20.01 С 2 н/о н/о -1.2 -2.8 89 -4 -4 1019.7 1014.5
06 20.01 С 2 н/о н/о -1.0 -2.5 90 -4 -4 1019.8 1014.6 303
07 20.01 С 2 н/о н/о -1.3 -2.8 90 -5 -5 1019.9 1014.7
08 20.01 С 2 н/о н/о -0.4 -1.9 90 -4 -4 1020.4 1015.2
09 20.01 С 2 н/о н/о +1.4 -0.9 85 -2 -2 1020.7 1015.5
10 20.01 С 2 н/о н/о +3.3 -1.0 73 +1 +1 1021.0 1015.8
11 20.01 С 2 н/о н/о +4.1 -0.9 70 +2 +2 1020.7 1015.6
12 20.01 СЗ 2 н/о н/о +6.0 -0.4 63 +4 +4 1020.3 1015.2
13 20.01 СЗ 2 н/о н/о +7.1 -0.9 57 +6 +6 1020.0 1014.9
14 20.01 З 1 н/о н/о +7.1 -1.2 56 +7 +7 1019.7 1014.6
15 20.01 ЮЗ 1 н/о н/о +7.3 -1.0 56 +8 +8 1019.9 1014.8
16 20.01 З 1 н/о н/о +3.8 -2.7 62 +3 +3 1020.1 1015.0 +8.4
17 20.01 З 1 н/о н/о +1.5 -2.0 78 -0 -0 1020.6 1015.4
18 20.01 штиль 0 н/о н/о +0.5 -1.6 86 -1 -1 1021.0 1015.8
19 20.01 З 1 н/о н/о +0.1 -1.4 90 -2 -2 1021.3 1016.1
20 20.01 З 1 н/о н/о +0.5 -1.0 90 -2 -2 1021.6 1016.4
21 20.01 СЗ 1 н/о н/о +0.3 -1.2 90 -2 -2 1021.9 1016.7
00 21.01 С 2 н/о н/о +1.1 -0.4 90 -2 -2 1022.3 1017.1
01 21.01 СЗ 3 н/о н/о +1.1 -0.5 89 -3 -3 1021.9 1016.7
02 21.01 С 3 н/о н/о +1.4 -0.1 90 -3 -3 1021.9 1016.7
03 21.01 С 3 н/о н/о +1.5 0.0 90 -3 -3 1021.6 1016.4
04 21.01 С 4 н/о н/о +1.9 -0.2 86 -3 -3 1021.7 1016.5 -0.2
05 21.01 С 4 н/о н/о +2.2 -0.8 81 -3 -3 1021.6 1016.4
06 21.01 С 3 н/о н/о +2.1 -0.9 81 -2 -2 1022.0 1016.8 106
07 21.01 С 3 н/о н/о +1.9 -1.1 80 -2 -2 1022.3 1017.1
08 21.01 С 3 н/о н/о +1.9 -1.1 80 -2 -2 1022.7 1017.5
09 21.01 С 4 н/о н/о +2.8 -0.9 77 -2 -2 1023.1 1017.9
10 21.01 С 4 н/о н/о +3.8 -0.3 75 -0 -0 1023.2 1018.0
11 21.01 С 4 н/о н/о +5.2 +0.3 71 +2 +2 1022.6 1017.5
12 21.01 СВ 4 н/о н/о +6.6 +0.6 65 +3 +3 1022.0 1016.9
13 21.01 С 4 н/о н/о +7.1 +1.1 66 +4 +4 1021.3 1016.2
14 21.01 СВ 5 н/о н/о +6.5 +0.3 65 +3 +3 1021.0 1015.9
15 21.01 СВ 4 н/о н/о +5.9 -0.3 64 +3 +3 1020.9 1015.8
16 21.01 В 2 н/о н/о +4.5 -0.6 69 +3 +3 1021.0 1015.9 +7.3
17 21.01 СВ 2 н/о н/о +2.6 -1.4 75 0 0 1021.1 1015.9
18 21.01 С 2 н/о н/о +2.1 -1.4 78 -1 -1 1021.3 1016.1
19 21.01 С 2 н/о н/о +1.7 -1.8 78 -1 -1 1021.3 1016.1
20 21.01 С 2 н/о н/о +1.3 -1.8 80 -2 -2 1021.2 1016.0
21 21.01 С 3 н/о н/о +0.8 -1.8 83 -3 -3 1021.0 1015.8
00 22.01 СЗ 2 н/о н/о 0.0 -2.3 84 -3 -3 1020.1 1014.9
01 22.01 С 1 н/о н/о -0.2 -2.3 86 -2 -2 1019.5 1014.3
02 22.01 С 1 н/о н/о -1.6 -3.2 89 -4 -4 1018.9 1013.7
03 22.01 С 1 н/о н/о -0.7 -2.5 88 -3 -3 1017.9 1012.7
04 22.01 С 2 н/о н/о -0.6 -2.5 87 -4 -4 1017.4 1012.2 -1.8
05 22.01 С 4 н/о н/о -0.1 -2.2 86 -6 -6 1016.7 1011.5
06 22.01 С 3 н/о н/о -0.2 -2.5 84 -5 -5 1016.3 1011.1 106
07 22.01 С 2 н/о н/о -0.8 -2.9 86 -5 -5 1016.3 1011.1
08 22.01 СВ 1 н/о н/о -0.3 -1.9 89 -2 -2 1016.0 1010.8
09 22.01 С 2 н/о н/о +1.7 -0.6 85 -2 -2 1015.6 1010.4
10 22.01 С 6 н/о н/о +3.7 -0.4 75 -2 -2 1015.0 1009.9

 

Местоположение метеостанции Конкордия-Саджиттария (Италия): широта 45.75 долгота 12.85 высота над уровнем моря 1 м.

В архиве по умолчанию представлена погода в Конкордия-Саджиттарии за последнюю неделю. Архивные данные за месяц целиком и за предыдущие месяцы, начиная с января 2011 года, Вы можете получить, выбрав интересующий диапазон дат из раскрывающегося списка и нажав кнопку "Ввод!".


*Определитесь, кто Вы:
робот инопланетянин человек

Внимание! Время в таблицах - всемирное. Для получения местного времени необходимо прибавить поправку, которая равна 1 ч.

Смотрите также архив погоды в соседних городах и на ближайших метеорологических станциях:

Погода на Базе ВВС Риволто (Италия) (29 км)
Погода на Базе ВВС Авиано (Италия) (36 км)
Погода в Авиано (Италия) (37 км)
Погода в Венеции (Италия) (49 км)
Погода в Ронки-деи-Леджонари (Италия) (49 км)
Погода в Венеция аэропорту (Италия) (51 км)
Погода в Тревизо (Италия) (53 км)
Погода в Тревизо аэропорту (Италия) (59 км)
Погода в Портороже (Словения) (62 км)
Погода в Новой Горице (Словения) (63 км)

Пояснения к столбцам:

Ветер - указаны скорость ветра в м/с - средняя за 10 мин, порывы в срок и между сроками (в фигурных скобках) и направление, откуда дует ветер: С - северный, СВ - северо-восточный, В - восточный, ЮВ - юго-восточный, Ю - южный, ЮЗ - юго-западный, З - западный, СЗ - северо-западный.
Видимость - горизонтальная дальность видимости в метрах или километрах. При видимости от 1 до 10 км при отсутствии осадков обычно наблюдается дымка, при ухудшении видимости до 1 км и менее - туман. В сухую погоду видимость может ухудшаться дымом, пылью или мглою.
Явления - указаны атмосферные явления, наблюдавшиеся в срок или в последний час перед сроком; фигурными скобками обозначены явления, наблюдавшиеся между сроками (за 1-3 часа до срока); квадратными скобками обозначены град или гололедные отложения с указанием их диаметра в мм.
Облачность - указаны через наклонную черту общая и нижняя облачность в баллах и высота нижней границы облаков в метрах; квадратными скобками обозначены формы облаков: Ci - перистые, Cs - перисто-слоистые, Cc - перисто-кучевые, Ac - высококучевые, As - высокослоистые, Sc - слоисто-кучевые, Ns - слоисто-дождевые, Cu - кучевые, Cb - кучево-дождевые. Подробнее классификацию облаков см. в Атласе облаков (PDF).
T - Температура воздуха - температура, измеренная на высоте 2 м над землей.
Td - Температура точки росы - температура, при понижении до которой содержащийся в воздухе водяной пар достигнет насыщения.
f - Относительная влажность воздуха - влажноcть воздуха, измеренная на высоте 2 м над землей.
Te - Эффективная температура - температура, которую ощущает одетый по сезону человек в тени. Характеристика душности погоды. При расчете учитывается влияние влажности воздуха и скорости ветра на теплоощущения человека.
Tes - Эффективная температура на солнце - температура, которую ощущает человек, с поправкой на солнечный нагрев. Характеристика знойности погоды. Зависит от высоты солнца над горизонтом, облачности и скорости ветра. Ночью, в пасмурную погоду, а также при ветре 12 м/с и более поправка равна нулю.
P - Атмосферное давление - приведенное к уровню моря атмосферное давление.
Po - Атмосферное давление - измеренное на уровне метеостанции атмосферное давление.
Tmin - Минимальная температура - минимум температуры воздуха на высоте 2 м над землей.
Tmax - Максимальная температура - максимум температуры воздуха на высоте 2 м над землей.
R - Количество осадков - Количество выпавших осадков за период времени, мм. При наведении курсора мыши на число - период времени, за который выпало указанное количество осадков.
R24 - Количество осадков - Количество выпавших осадков за 24 часа, мм.
S - Снежный покров - Высота снежного покрова, см. При наведении курсора мыши на число - состояние снежного покрова и степень покрытия местности в баллах.